| time (UTC) | temp C | wind direction | speed KPH | gust KPH | rain 1hr cm | rain 24hr cm | rain mn cm | humidity % | barometer mb |
| 20260502162031 | 11 | 192 | 0.0 | 8.0 | 0.00 | 0.00 | 0.00 | 47 | 1011.3 |
| 20260502161926 | 11 | 191 | 0.0 | 8.0 | 0.00 | 0.00 | 0.00 | 49 | 1011.2 |
| 20260502160105 | 11 | 192 | 0.0 | 0.0 | 0.00 | 0.00 | 0.00 | 53 | 1011.2 |
| 20260502152034 | 11 | 190 | 0.0 | 0.0 | 0.00 | 0.00 | 0.00 | 64 | 1011.4 |
| 20260502151925 | 11 | 190 | 0.0 | 0.0 | 0.00 | 0.00 | 0.00 | 64 | 1011.3 |
| 20260502122032 | 9 | 186 | 0.0 | 0.0 | 0.00 | 0.00 | 0.00 | 49 | 1012.1 |
| 20260502121925 | 9 | 186 | 0.0 | 0.0 | 0.00 | 0.00 | 0.00 | 49 | 1012.1 |
| 20260502120110 | 9 | 186 | 0.0 | 0.0 | 0.00 | 0.00 | 0.00 | 51 | 1012.6 |
| 20260502112031 | 9 | 185 | 0.0 | 0.0 | 0.00 | 0.00 | 0.00 | 48 | 1011.9 |
| 20260502111925 | 9 | 185 | 0.0 | 0.0 | 0.00 | 0.00 | 0.00 | 47 | 1011.9 |
| 20260502110031 | 8 | 184 | 0.0 | 0.0 | 0.00 | 0.00 | 0.00 | 50 | 1011.8 |
| 20260502104031 | 8 | 184 | 0.0 | 0.0 | 0.00 | 0.00 | 0.00 | 52 | 1011.6 |
| 20260502102031 | 8 | 184 | 0.0 | 0.0 | 0.00 | 0.00 | 0.00 | 52 | 1011.5 |
| 20260502101925 | 8 | 184 | 0.0 | 0.0 | 0.00 | 0.00 | 0.00 | 52 | 1011.6 |
| 20260502070031 | 9 | 184 | 0.0 | 0.0 | 0.00 | 0.00 | 0.00 | 65 | 1011.3 |
| 20260502064031 | 9 | 184 | 0.0 | 0.0 | 0.00 | 0.00 | 0.00 | 65 | 1011.3 |
| 20260502062031 | 9 | 184 | 0.0 | 0.0 | 0.00 | 0.00 | 0.00 | 66 | 1011.5 |
| 20260502061925 | 9 | 184 | 0.0 | 0.0 | 0.00 | 0.00 | 0.00 | 66 | 1011.5 |
| 20260502060031 | 10 | 184 | 0.0 | 0.0 | 0.00 | 0.00 | 0.00 | 66 | 1011.5 |
| 20260502054031 | 10 | 191 | 0.0 | 0.0 | 0.00 | 0.00 | 0.00 | 67 | 1011.8 |
| 20260502052031 | 10 | 176 | 0.0 | 0.0 | 0.00 | 0.00 | 0.00 | 67 | 1011.7 |
| 20260502051925 | 10 | 175 | 0.0 | 0.0 | 0.00 | 0.00 | 0.00 | 67 | 1011.7 |
| 20260502050031 | 10 | 190 | 0.0 | 0.0 | 0.00 | 0.00 | 0.00 | 67 | 1011.9 |
| 20260502044031 | 10 | 186 | 0.0 | 0.0 | 0.00 | 0.00 | 0.00 | 67 | 1011.8 |
| 20260502042031 | 10 | 186 | 0.0 | 0.0 | 0.00 | 0.00 | 0.00 | 67 | 1011.8 |
| 20260502041925 | 10 | 186 | 0.0 | 0.0 | 0.00 | 0.00 | 0.00 | 67 | 1011.8 |
| 20260502040031 | 10 | 186 | 0.0 | 0.0 | 0.00 | 0.00 | 0.00 | 67 | 1011.9 |
| 20260502034031 | 10 | 186 | 0.0 | 0.0 | 0.00 | 0.00 | 0.00 | 67 | 1011.9 |
| 20260502032031 | 10 | 184 | 0.0 | 0.0 | 0.00 | 0.00 | 0.00 | 66 | 1012.0 |
| 20260502031925 | 10 | 184 | 0.0 | 0.0 | 0.00 | 0.00 | 0.00 | 66 | 1012.0 |
| 20260502030032 | 10 | 182 | 0.0 | 0.0 | 0.00 | 0.00 | 0.00 | 65 | 1012.0 |
| 20260502024031 | 11 | 182 | 0.0 | 0.0 | 0.00 | 0.00 | 0.00 | 63 | 1011.6 |
| 20260502022031 | 11 | 218 | 0.0 | 0.0 | 0.00 | 0.00 | 0.00 | 61 | 1011.7 |
| 20260502021925 | 11 | 219 | 0.0 | 0.0 | 0.00 | 0.00 | 0.00 | 61 | 1011.8 |
| 20260502020031 | 11 | 246 | 0.0 | 0.0 | 0.00 | 0.00 | 0.00 | 60 | 1011.8 |
| 20260502014031 | 11 | 248 | 0.0 | 0.0 | 0.00 | 0.00 | 0.00 | 58 | 1011.6 |
| 20260502012031 | 11 | 255 | 0.0 | 0.0 | 0.00 | 0.00 | 0.00 | 59 | 1011.4 |
| 20260502011925 | 10 | 257 | 0.0 | 0.0 | 0.00 | 0.00 | 0.00 | 59 | 1011.4 |
| 20260502010030 | 11 | 257 | 0.0 | 0.0 | 0.00 | 0.00 | 0.00 | 58 | 1011.2 |
| 20260502002031 | 12 | 257 | 0.0 | 0.0 | 0.00 | 0.00 | 0.00 | 51 | 1010.3 |
| 20260502001925 | 12 | 257 | 0.0 | 0.0 | 0.00 | 0.00 | 0.00 | 51 | 1010.3 |
| 20260502000031 | 13 | 257 | 0.0 | 0.0 | 0.00 | 0.00 | 0.00 | 48 | 1010.0 |
| 20260501234031 | 15 | 257 | 0.0 | 0.0 | 0.00 | 0.00 | 0.00 | 46 | 1010.0 |
| 20260501232032 | 15 | 257 | 0.0 | 0.0 | 0.00 | 0.00 | 0.00 | 41 | 1009.6 |
| 20260501231925 | 15 | 257 | 0.0 | 0.0 | 0.00 | 0.00 | 0.00 | 41 | 1009.6 |
| 20260501230031 | 16 | 257 | 0.0 | 14.5 | 0.00 | 0.00 | 0.00 | 37 | 1009.4 |
| 20260501224031 | 16 | 292 | 0.0 | 14.5 | 0.00 | 0.00 | 0.00 | 37 | 1009.2 |
| 20260501222033 | 16 | 286 | 0.0 | 14.5 | 0.00 | 0.00 | 0.00 | 36 | 1009.2 |
| 20260501221925 | 16 | 286 | 0.0 | 14.5 | 0.00 | 0.00 | 0.00 | 35 | 1009.1 |
| 20260501214034 | 16 | 301 | 0.0 | 11.3 | 0.00 | 0.00 | 0.00 | 35 | 1008.9 |
| 20260501212032 | 17 | 57 | 9.7 | 11.3 | 0.00 | 0.00 | 0.00 | 35 | 1009.0 |
| 20260501211925 | 17 | 300 | 1.6 | 11.3 | 0.00 | 0.00 | 0.00 | 34 | 1009.0 |
| 20260501210032 | 17 | 288 | 0.0 | 14.5 | 0.00 | 0.00 | 0.00 | 35 | 1008.7 |
| 20260501204032 | 18 | 254 | 0.0 | 14.5 | 0.00 | 0.00 | 0.00 | 33 | 1008.7 |
| 20260501201925 | 17 | 269 | 0.0 | 14.5 | 0.00 | 0.00 | 0.00 | 34 | 1008.5 |
| 20260501194032 | 18 | 260 | 0.0 | 14.5 | 0.00 | 0.00 | 0.00 | 34 | 1009.0 |
| 20260501192033 | 18 | 238 | 0.0 | 14.5 | 0.00 | 0.00 | 0.00 | 37 | 1009.2 |
| 20260501191926 | 17 | 237 | 0.0 | 14.5 | 0.00 | 0.00 | 0.00 | 37 | 1009.2 |
| 20260501190032 | 17 | 314 | 0.0 | 14.5 | 0.00 | 0.00 | 0.00 | 37 | 1009.2 |
| 20260501184032 | 17 | 278 | 12.9 | 14.5 | 0.00 | 0.00 | 0.00 | 35 | 1009.5 |
| 20260501182032 | 17 | 213 | 20.9 | 14.5 | 0.00 | 0.00 | 0.00 | 39 | 1009.4 |
| 20260501181925 | 17 | 286 | 1.6 | 14.5 | 0.00 | 0.00 | 0.00 | 39 | 1009.4 |
| 20260501180033 | 17 | 281 | 1.6 | 22.5 | 0.00 | 0.00 | 0.00 | 39 | 1009.5 |
| 20260501174032 | 16 | 302 | 0.0 | 22.5 | 0.00 | 0.00 | 0.00 | 44 | 1009.6 |
| 20260501172030 | 16 | 299 | 1.6 | 22.5 | 0.00 | 0.00 | 0.00 | 44 | 1009.9 |
| 20260501171925 | 16 | 309 | 14.5 | 22.5 | 0.00 | 0.00 | 0.00 | 45 | 1009.7 |
| 20260501170032 | 15 | 213 | 6.4 | 19.3 | 0.00 | 0.00 | 0.00 | 45 | 1009.9 |
| 20260501164031 | 15 | 261 | 0.0 | 19.3 | 0.00 | 0.00 | 0.00 | 49 | 1010.2 |